When you browse on this site, cookies collect data to enhance your experience and personalize the content and advertising you see.
Visit our Privacy Policy to learn more. By continuing to use the site, you agree to this use of cookies and data.
  • In Hungary
  • List of Countries
  • For 7 days
  • Water Temperature
  • Satellite Maps
  • Weather Map
  • News
  • Weather Widgets
  • user-avatar
    Login

    Hourly Weather Antushino

    Today, 20 January, Sunday

    Time Temperature Precipitation Wind Pressure Humidity
    00:00 -10°C° 0 mm 3 mps 739 mmHg 92%
    01:00 -9°C° 0 mm 3 mps 739 mmHg 92%
    02:00 -8°C° 0 mm 3 mps 739 mmHg 91%
    03:00 -8°C° 0.1 mm 3 mps 738 mmHg 91%
    04:00 -9°C° 0.1 mm 4 mps 738 mmHg 90%
    05:00 -8°C° 0.1 mm 4 mps 737 mmHg 89%
    06:00 -8°C° 0.3 mm 4 mps 736 mmHg 89%
    07:00 -8°C° 0.3 mm 4 mps 736 mmHg 89%
    08:00 -7°C° 0 mm 4 mps 735 mmHg 90%
    09:00 -7°C° 0.3 mm 4 mps 735 mmHg 89%
    10:00 -5°C° 0.3 mm 4 mps 734 mmHg 87%
    11:00 -4°C° 0.3 mm 4 mps 734 mmHg 86%
    12:00 -5°C° 0 mm 4 mps 734 mmHg 85%
    13:00 -5°C° 0 mm 4 mps 733 mmHg 84%
    14:00 -7°C° 0 mm 4 mps 733 mmHg 83%
    15:00 -7°C° 0.1 mm 4 mps 733 mmHg 84%
    16:00 -7°C° 0.1 mm 4 mps 733 mmHg 86%
    17:00 -8°C° 0.1 mm 5 mps 733 mmHg 88%
    18:00 -8°C° 0.1 mm 5 mps 734 mmHg 87%
    19:00 -8°C° 0.1 mm 5 mps 734 mmHg 87%
    20:00 -10°C° 0.1 mm 5 mps 734 mmHg 86%
    21:00 -11°C° 0.1 mm 5 mps 735 mmHg 87%
    22:00 -12°C° 0.1 mm 5 mps 735 mmHg 87%
    23:00 -13°C° 0.1 mm 5 mps 736 mmHg 87%

    Tomorrow, 21 January, Monday

    Time Temperature Precipitation Wind Pressure Humidity
    00:00 -14°C° 0 mm 4 mps 736 mmHg 88%
    01:00 -15°C° 0 mm 4 mps 737 mmHg 90%
    02:00 -17°C° 0 mm 4 mps 737 mmHg 91%
    03:00 -17°C° 0 mm 3 mps 737 mmHg 92%
    04:00 -17°C° 0 mm 3 mps 738 mmHg 93%
    05:00 -18°C° 0 mm 3 mps 738 mmHg 93%
    06:00 -19°C° 0 mm 3 mps 738 mmHg 94%
    07:00 -18°C° 0 mm 2 mps 738 mmHg 95%
    08:00 -19°C° 0 mm 2 mps 738 mmHg 96%
    09:00 -18°C° 0 mm 2 mps 739 mmHg 95%
    10:00 -18°C° 0 mm 2 mps 739 mmHg 95%
    11:00 -18°C° 0 mm 2 mps 739 mmHg 94%
    12:00 -17°C° 0 mm 2 mps 740 mmHg 94%
    13:00 -17°C° 0 mm 2 mps 740 mmHg 94%
    14:00 -17°C° 0 mm 2 mps 740 mmHg 93%
    15:00 -18°C° 0 mm 2 mps 740 mmHg 94%
    16:00 -18°C° 0 mm 2 mps 741 mmHg 95%
    17:00 -19°C° 0 mm 2 mps 741 mmHg 95%
    18:00 -20°C° 0 mm 2 mps 741 mmHg 96%
    19:00 -20°C° 0 mm 2 mps 741 mmHg 96%
    20:00 -21°C° 0 mm 2 mps 742 mmHg 96%
    21:00 -21°C° 0 mm 2 mps 742 mmHg 96%
    22:00 -21°C° 0 mm 2 mps 742 mmHg 96%
    23:00 -21°C° 0 mm 2 mps 742 mmHg 96%

    Day after tomorrow, 22 January, Tuesday

    Time Temperature Precipitation Wind Pressure Humidity
    00:00 -23°C° 0 mm 3 mps 743 mmHg 96%
    01:00 -22°C° 0 mm 3 mps 743 mmHg 96%
    02:00 -22°C° 0 mm 3 mps 743 mmHg 96%
    03:00 -22°C° 0 mm 3 mps 743 mmHg 96%
    04:00 -21°C° 0 mm 3 mps 743 mmHg 96%
    05:00 -21°C° 0 mm 3 mps 743 mmHg 96%
    06:00 -21°C° 0 mm 3 mps 744 mmHg 96%
    07:00 -21°C° 0 mm 3 mps 744 mmHg 96%
    08:00 -19°C° 0 mm 3 mps 745 mmHg 96%
    09:00 -19°C° 0 mm 3 mps 745 mmHg 95%
    10:00 -18°C° 0 mm 3 mps 745 mmHg 95%
    11:00 -18°C° 0 mm 3 mps 745 mmHg 94%
    12:00 -18°C° 0 mm 3 mps 745 mmHg 94%
    13:00 -18°C° 0 mm 3 mps 745 mmHg 94%
    14:00 -17°C° 0 mm 2 mps 745 mmHg 94%
    15:00 -18°C° 0 mm 2 mps 745 mmHg 95%
    16:00 -19°C° 0 mm 2 mps 745 mmHg 96%
    17:00 -20°C° 0 mm 2 mps 745 mmHg 97%
    18:00 -20°C° 0 mm 2 mps 746 mmHg 97%
    19:00 -20°C° 0 mm 2 mps 746 mmHg 97%
    20:00 -20°C° 0 mm 2 mps 746 mmHg 97%
    21:00 -21°C° 0 mm 2 mps 746 mmHg 98%
    22:00 -21°C° 0 mm 2 mps 746 mmHg 98%
    23:00 -23°C° 0 mm 2 mps 746 mmHg 98%

    23 January, Wednesday

    Time Temperature Precipitation Wind Pressure Humidity
    00:00 -23°C° 0 mm 2 mps 746 mmHg 98%
    01:00 -23°C° 0 mm 2 mps 746 mmHg 97%
    02:00 -23°C° 0 mm 2 mps 746 mmHg 97%
    03:00 -23°C° 0 mm 2 mps 746 mmHg 97%
    04:00 -23°C° 0 mm 2 mps 745 mmHg 98%
    05:00 -23°C° 0 mm 2 mps 745 mmHg 98%
    06:00 -20°C° 0 mm 2 mps 745 mmHg 98%
    07:00 -19°C° 0 mm 2 mps 745 mmHg 98%
    08:00 -17°C° 0 mm 2 mps 745 mmHg 97%
    09:00 -16°C° 0 mm 2 mps 745 mmHg 96%
    10:00 -15°C° 0 mm 3 mps 745 mmHg 95%
    11:00 -13°C° 0 mm 3 mps 745 mmHg 94%
    12:00 -13°C° 0 mm 3 mps 745 mmHg 93%
    13:00 -12°C° 0 mm 3 mps 744 mmHg 92%
    14:00 -10°C° 0 mm 3 mps 744 mmHg 91%
    15:00 -10°C° 0 mm 4 mps 744 mmHg 91%
    16:00 -10°C° 0 mm 4 mps 744 mmHg 91%
    17:00 -9°C° 0 mm 4 mps 744 mmHg 90%
    18:00 -9°C° 0 mm 4 mps 744 mmHg 90%
    19:00 -10°C° 0 mm 4 mps 744 mmHg 90%
    20:00 -10°C° 0 mm 4 mps 744 mmHg 90%
    21:00 -11°C° 0 mm 4 mps 744 mmHg 91%
    22:00 -12°C° 0 mm 4 mps 744 mmHg 91%
    23:00 -15°C° 0 mm 4 mps 744 mmHg 92%

    24 January, Thursday

    Time Temperature Precipitation Wind Pressure Humidity
    00:00 -15°C° 0 mm 4 mps 744 mmHg 92%
    01:00 -15°C° 0 mm 4 mps 745 mmHg 93%
    02:00 -16°C° 0 mm 4 mps 745 mmHg 94%
    03:00 -16°C° 0 mm 4 mps 745 mmHg 93%
    04:00 -15°C° 0 mm 3 mps 745 mmHg 93%
    05:00 -15°C° 0 mm 3 mps 745 mmHg 93%
    06:00 -15°C° 0 mm 3 mps 745 mmHg 93%
    07:00 -15°C° 0 mm 3 mps 745 mmHg 93%
    08:00 -15°C° 0 mm 3 mps 745 mmHg 93%
    09:00 -15°C° 0 mm 3 mps 746 mmHg 94%
    10:00 -13°C° 0 mm 2 mps 746 mmHg 94%
    11:00 -13°C° 0 mm 2 mps 746 mmHg 94%
    12:00 -13°C° 0 mm 2 mps 747 mmHg 94%
    13:00 -10°C° 0 mm 1 mps 747 mmHg 95%
    14:00 -10°C° 0 mm 1 mps 747 mmHg 95%
    15:00 -10°C° 0 mm 1 mps 747 mmHg 95%
    16:00 -11°C° 0 mm 1 mps 748 mmHg 96%
    17:00 -12°C° 0 mm 0 mps 748 mmHg 97%
    18:00 -12°C° 0 mm 1 mps 748 mmHg 97%
    19:00 -13°C° 0 mm 1 mps 748 mmHg 97%
    20:00 -14°C° 0 mm 1 mps 749 mmHg 97%
    21:00 -16°C° 0 mm 2 mps 749 mmHg 96%
    22:00 -17°C° 0 mm 2 mps 749 mmHg 96%
    23:00 -18°C° 0 mm 2 mps 749 mmHg 96%

    25 January, Friday

    Time Temperature Precipitation Wind Pressure Humidity
    00:00 -19°C° 0 mm 2 mps 749 mmHg 96%
    01:00 -19°C° 0 mm 2 mps 750 mmHg 95%
    02:00 -19°C° 0 mm 2 mps 750 mmHg 94%
    03:00 -19°C° 0 mm 2 mps 750 mmHg 94%
    04:00 -20°C° 0 mm 2 mps 750 mmHg 94%
    05:00 -20°C° 0 mm 2 mps 750 mmHg 94%
    06:00 -20°C° 0 mm 2 mps 750 mmHg 94%
    07:00 -20°C° 0 mm 2 mps 750 mmHg 94%
    08:00 -21°C° 0 mm 2 mps 750 mmHg 94%
    09:00 -20°C° 0 mm 2 mps 751 mmHg 93%
    10:00 -19°C° 0 mm 2 mps 751 mmHg 92%
    11:00 -19°C° 0 mm 2 mps 751 mmHg 91%
    12:00 -18°C° 0 mm 2 mps 751 mmHg 91%
    13:00 -18°C° 0 mm 2 mps 751 mmHg 91%
    14:00 -18°C° 0 mm 2 mps 750 mmHg 91%
    15:00 -19°C° 0 mm 3 mps 750 mmHg 91%
    16:00 -19°C° 0 mm 3 mps 750 mmHg 91%
    17:00 -21°C° 0 mm 3 mps 750 mmHg 91%
    18:00 -21°C° 0.1 mm 3 mps 750 mmHg 91%
    19:00 -19°C° 0.1 mm 3 mps 750 mmHg 91%
    20:00 -19°C° 0.1 mm 3 mps 750 mmHg 91%
    21:00 -19°C° 0.1 mm 3 mps 750 mmHg 91%
    22:00 -19°C° 0.1 mm 3 mps 750 mmHg 92%
    23:00 -19°C° 0.1 mm 3 mps 750 mmHg 93%
    Show more